{"data":{"norad_id":58002,"epoch":"2026-09-19T17:19:39.808992Z","epoch_age_seconds":204805,"freshness":"STALE","line1":"1 58002U 23153M   26262.72198853  .00000281  00000+0  19758-4 0  9994","line2":"2 58002  43.0048  51.0297 0001453 267.5239  92.5446 15.27578451164474","mean_motion":15.27578451,"eccentricity":0.0001453,"inclination_deg":43.0048,"raan_deg":51.0297,"arg_perigee_deg":267.5239,"mean_anomaly_deg":92.5446,"bstar":1.9758e-5,"rev_number":16447,"period_min":94.266844302323,"perigee_km":482.05680329313,"apogee_km":484.05066532052,"semimajor_km":6861.1907343068,"source":"CELESTRAK","updated_at":"2026-09-21T09:00:33.755243Z"}}